Location: Belvedere Heights
(33.9836°N, 117.3109°W)
Time: 04:04:26
(UTC+00:00)

Meteor 1-14 Rocket - Pass Details

Date: 06 December 2023
Orbit: 834 x 917 km, 81.3° (Epoch: 22 February)

Event Time Altitude Azimuth Distance (km) Brightness Sun altitude
Rises 03:50:14 0° 339° (NNW) 3,386 7.5 -38.7°
Enters shadow 03:52:21 - 331° (NNW) 2,634 7.0 -39.2°
Exits shadow 04:04:21 - 202° (SSW) 3,137 7.4 -41.7°
Sets 04:05:05 0° 200° (SSW) 3,403 7.6 -41.8°
